Location: Newark
(42.8481°N, 0.4872°E)
Time: 13:58:34
(UTC+00:00)

Vanguard 2 Rocket - All Passes

Search period start: 30 October 2020 00:00
Search period end: 09 November 2020 00:00
Orbit: 554 x 3326 km, 32.9° (Epoch: 29 October)

Date Brightness Start Highest point End Pass type
(mag) Time Alt. Az. Time Alt. Az. Time Alt. Az.
30 Oct - 00:10:30 10° SW 00:12:26 11° SSW 00:14:33 10° SSW night (unlit)
30 Oct - 16:34:40 10° SSE 16:35:03 10° SSE 16:35:24 10° SSE daylight
30 Oct - 18:43:51 10° SW 18:47:03 23° S 18:50:49 10° ESE visible
30 Oct - 20:55:34 10° WSW 20:59:23 23° S 21:04:39 10° SE visible
30 Oct - 23:09:27 10° SW 23:12:32 13° SSW 23:16:17 10° S night (unlit)
31 Oct - 17:45:08 10° SW 17:47:58 19° S 17:50:56 10° ESE visible
31 Oct - 19:56:41 10° WSW 20:00:05 23° S 20:04:30 10° SE visible
31 Oct - 22:09:38 10° SW 22:12:52 15° SSW 22:16:55 10° SSE night (unlit)
01 Nov - 16:46:22 10° SSW 16:48:51 15° SSE 16:51:14 10° SE daylight
01 Nov - 18:57:47 10° SW 19:00:56 22° S 19:04:37 10° SE visible
01 Nov - 21:10:16 10° SW 21:13:22 16° SSW 21:17:16 10° SSE night (unlit)
02 Nov - 15:47:39 10° SSW 15:49:40 13° SSE 15:51:31 10° SE daylight
02 Nov - 17:58:46 10° SW 18:01:49 21° S 18:05:00 10° SE visible
02 Nov - 20:11:06 10° SW 20:14:02 18° S 20:17:37 10° SSE visible
03 Nov - 14:49:22 10° S 14:50:21 10° SSE 14:51:18 10° SSE daylight
03 Nov - 16:59:35 10° SW 17:02:43 20° S 17:05:38 10° SE daylight
03 Nov - 19:11:57 10° SW 19:14:50 19° S 19:18:07 10° SE visible
04 Nov - 16:00:12 10° SW 16:03:34 18° S 16:06:25 10° SE daylight
04 Nov - 18:12:42 10° SW 18:15:42 20° S 18:18:47 10° SE visible
04 Nov - 20:26:21 10° SW 20:27:57 12° SSW 20:29:45 10° S visible
05 Nov - 15:00:39 10° SSW 15:04:18 17° S 15:07:16 10° SE daylight
05 Nov - 17:13:15 10° SW 17:16:36 22° S 17:19:41 10° SE visible
05 Nov - 19:26:34 10° SW 19:28:43 14° SSW 19:31:04 10° SSE visible
06 Nov - 14:01:01 10° SSW 14:04:55 15° SSE 14:08:00 10° SE daylight
06 Nov - 16:13:31 10° SW 16:17:29 23° S 16:20:43 10° SE daylight
06 Nov - 18:26:54 10° SW 18:29:34 17° SSW 18:32:15 10° SSE visible
07 Nov - 13:01:31 10° S 13:05:19 14° SSE 13:08:25 10° SE daylight
07 Nov - 15:13:31 10° SW 15:18:15 23° S 15:21:49 10° ESE daylight
07 Nov - 17:27:09 10° WSW 17:30:28 21° S 17:33:28 10° SE visible
08 Nov - 12:02:36 10° S 12:05:32 12° SSE 12:08:05 10° SE daylight
08 Nov - 14:13:17 10° SW 14:18:53 23° S 14:22:54 10° ESE daylight
08 Nov - 16:27:09 10° WSW 16:31:22 24° S 16:34:43 10° SE daylight
08 Nov - 18:41:42 10° SW 18:43:22 12° SSW 18:45:01 10° S visible
